Flag for Norway Weather past 2 weeks in Jan Mayen, Jan Mayen, Norway

Now
41 °F

Quite cool.


Feels Like: 35 °F
Forecast: 42 / 45 °F
Wind: 12 mph from Northwest

Location: Jan Mayen

Current Time: Sep 18, 2014 at 4:31:46 AM

Latest Report: Sep 18, 2014 at 3:00 AM


Visibility: N/A

Pressure: 30.33 "Hg

Humidity: 23%

Dew point: 6 °F

Location of Jan MayenLocation

Historic Weather in Jan Mayen — Graph

°F

Jan Mayen temperature yesterday

Maximum temperature yesterday: 42 °F (at 2:00 PM)
Minimum temperature yesterday: 37 °F (at 11:00 PM)
Average temperature yesterday: 41 °F

Past Weeks' High & Low Weather Summary

 TemperatureHumidityPressure
High48 °F (Sep 5, 4:00 PM)98% (Sep 15, 12:00 PM)30.38 "Hg (Sep 15, 12:00 PM)
Low35 °F (Sep 18, 12:00 AM)23% (Sep 18, 2:00 AM)29.35 "Hg (Sep 3, 2:00 PM)
Average44 °F85%29.82 "Hg
* Reported Sep 3 3:00 AM — Sep 18 3:00 AM, Jan Mayen, Weather by CustomWeather, © 2014

Note: Actual official high and low records may vary slightly from our data, if they occured in-between our weather recording intervals... More about our weather records

Advertising

Jan Mayen weather history for previous 24 hours

 ConditionsComfort  
Time TempWeatherWind HumidityBarometerVisibility
3:00 AM
Sep 18
41 °FQuite cool.12 mph23%30.33 "HgN/A
2:00 AM41 °FPassing clouds.10 mph23%30.34 "Hg34 mi
1:00 AM39 °FChilly.3 mph29%30.36 "HgN/A
12:00 AM35 °FChilly.2 mph55%30.37 "HgN/A
11:00 PM
Sep 17
37 °FChilly.1 mph54%30.37 "HgN/A
10:00 PM40 °FQuite cool.3 mph50%30.38 "HgN/A
9:00 PM40 °FQuite cool.3 mph49%30.37 "HgN/A
8:00 PM41 °FPassing clouds.6 mph50%30.37 "Hg47 mi
7:00 PM41 °FQuite cool.6 mph53%30.36 "HgN/A
6:00 PM42 °FQuite cool.8 mph52%30.35 "HgN/A
5:00 PM42 °FPassing clouds.7 mph41%30.35 "Hg47 mi
4:00 PM42 °FQuite cool.8 mph44%30.34 "HgN/A
3:00 PM42 °FQuite cool.5 mph49%30.34 "HgN/A
2:00 PM42 °FSunny.5 mph44%30.33 "Hg47 mi
1:00 PM42 °FQuite cool.5 mph46%30.33 "HgN/A
12:00 PM42 °FQuite cool.3 mph47%30.31 "HgN/A
11:00 AM41 °FSunny.5 mph45%30.30 "Hg47 mi
10:00 AM41 °FQuite cool.8 mph46%30.29 "HgN/A
9:00 AM40 °FChilly.5 mph51%30.27 "HgN/A
8:00 AM39 °FPassing clouds.7 mph50%30.25 "Hg47 mi
7:00 AM40 °FChilly.9 mph45%30.23 "HgN/A
6:00 AM40 °FQuite cool.12 mph45%30.21 "HgN/A
5:00 AM41 °FQuite cool.13 mph43%30.19 "HgN/A
4:00 AM41 °FQuite cool.9 mph53%30.18 "HgN/A
Weather by CustomWeather, © 2014

See weather overviewHow to use our weather pages